Time,TemperatureF,DewpointF,PressureIn,WindDirection,WindDirectionDegrees,WindSpeedMPH,WindSpeedGustMPH,Humidity,HourlyPrecipIn,Conditions,Clouds,dailyrainin,SolarRadiationWatts/m^2,SoftwareType,DateUTC
2013-10-04 00:32:00,54.1,49.8,30.00,NNW,333,0.0,0.0,85,0.00,,,0.00,0.0,meteohub,2013-10-04 04:32:00,
2013-10-04 00:34:00,54.1,49.8,30.00,NNW,333,0.0,0.0,85,0.00,,,0.00,0.0,meteohub,2013-10-04 04:34:00,
2013-10-04 00:35:00,54.1,49.8,30.00,NNW,333,0.0,0.0,85,0.00,,,0.00,0.0,meteohub,2013-10-04 04:35:00,
2013-10-04 00:37:00,54.0,49.6,30.00,NNW,333,0.0,0.0,85,0.00,,,0.00,0.0,meteohub,2013-10-04 04:37:00,
2013-10-04 00:39:00,54.0,49.6,30.00,NNW,333,0.0,0.0,85,0.00,,,0.00,0.0,meteohub,2013-10-04 04:39:00,
2013-10-04 00:40:00,54.0,49.6,30.00,NNW,333,0.0,0.0,85,0.00,,,0.00,0.0,meteohub,2013-10-04 04:40:00,
2013-10-04 00:42:00,54.0,49.6,30.00,NNW,333,0.0,0.0,85,0.00,,,0.00,0.0,meteohub,2013-10-04 04:42:00,
2013-10-04 00:44:00,54.0,49.6,30.01,NNW,333,0.0,0.0,85,0.00,,,0.00,0.0,meteohub,2013-10-04 04:44:00,
2013-10-04 00:45:00,54.0,49.6,30.01,NNW,333,0.0,0.0,85,0.00,,,0.00,0.0,meteohub,2013-10-04 04:45:00,
2013-10-04 00:46:00,54.0,49.6,30.01,NNW,333,0.0,0.0,85,0.00,,,0.00,0.0,meteohub,2013-10-04 04:46:00,
2013-10-04 00:48:00,54.0,49.8,30.01,NNW,334,3.0,0.0,86,0.00,,,0.00,0.0,meteohub,2013-10-04 04:48:00,
2013-10-04 00:49:00,53.8,49.6,30.01,NNW,334,3.0,0.0,86,0.00,,,0.00,0.0,meteohub,2013-10-04 04:49:00,
2013-10-04 00:56:00,53.1,48.9,30.01,NNW,334,0.0,4.0,86,0.00,,,0.00,0.0,meteohub,2013-10-04 04:56:00,
2013-10-04 01:00:00,53.1,48.9,30.01,NNW,334,0.0,4.0,86,0.00,,,0.00,0.0,meteohub,2013-10-04 05:00:00,
2013-10-04 01:02:00,53.1,48.9,30.01,NNW,334,0.0,4.0,86,0.00,,,0.00,0.0,meteohub,2013-10-04 05:02:00,
2013-10-04 01:03:00,53.1,48.9,30.01,NNW,334,0.0,4.0,86,0.00,,,0.00,0.0,meteohub,2013-10-04 05:03:00,
2013-10-04 01:08:00,53.1,48.9,30.01,NNW,334,0.0,3.0,86,0.00,,,0.00,0.0,meteohub,2013-10-04 05:08:00,
2013-10-04 01:10:00,52.9,48.7,30.01,NNW,334,0.0,0.0,86,0.00,,,0.00,0.0,meteohub,2013-10-04 05:10:00,
2013-10-04 01:13:00,52.9,49.1,30.01,NNW,334,0.0,0.0,87,0.00,,,0.00,0.0,meteohub,2013-10-04 05:13:00,
2013-10-04 01:15:00,53.1,49.3,30.01,NNW,334,0.0,0.0,87,0.00,,,0.00,0.0,meteohub,2013-10-04 05:15:00,
2013-10-04 01:18:00,53.2,50.0,30.01,NNW,334,0.0,0.0,89,0.00,,,0.00,0.0,meteohub,2013-10-04 05:18:00,
2013-10-04 01:19:00,53.2,50.0,30.01,NNW,334,1.0,0.0,89,0.00,,,0.00,0.0,meteohub,2013-10-04 05:19:00,
2013-10-04 01:24:00,53.4,50.0,30.02,NNW,334,1.0,1.0,88,0.00,,,0.00,0.0,meteohub,2013-10-04 05:24:00,
2013-10-04 01:27:00,53.6,50.2,30.01,NNW,334,1.0,3.0,88,0.00,,,0.00,0.0,meteohub,2013-10-04 05:27:00,
2013-10-04 01:32:00,54.0,50.7,30.01,NNW,334,0.0,3.0,89,0.00,,,0.00,0.0,meteohub,2013-10-04 05:32:00,
2013-10-04 01:37:00,54.1,50.9,30.01,NNW,336,1.0,3.0,89,0.00,,,0.00,0.0,meteohub,2013-10-04 05:37:00,
2013-10-04 01:42:00,54.1,50.9,30.00,East,84,1.0,3.0,89,0.00,,,0.00,0.0,meteohub,2013-10-04 05:42:00,
2013-10-04 01:47:00,54.1,50.9,30.00,East,84,2.0,4.0,89,0.00,,,0.00,0.0,meteohub,2013-10-04 05:47:00,
2013-10-04 01:52:00,54.1,50.7,29.99,East,84,0.0,4.0,88,0.00,,,0.00,0.0,meteohub,2013-10-04 05:52:00,
2013-10-04 01:57:00,54.1,50.7,29.99,East,84,0.0,3.0,88,0.00,,,0.00,0.0,meteohub,2013-10-04 05:57:00,
2013-10-04 02:02:00,54.1,50.4,30.00,East,84,0.0,3.0,87,0.00,,,0.00,0.0,meteohub,2013-10-04 06:02:00,
2013-10-04 02:07:00,54.0,50.2,30.00,East,84,0.0,2.0,87,0.00,,,0.00,0.0,meteohub,2013-10-04 06:07:00,
2013-10-04 02:12:00,54.0,49.8,30.01,SSW,194,0.0,2.0,86,0.00,,,0.00,0.0,meteohub,2013-10-04 06:12:00,
2013-10-04 02:17:00,54.1,49.8,30.01,SW,232,0.0,6.0,85,0.00,,,0.00,0.0,meteohub,2013-10-04 06:17:00,
2013-10-04 02:22:00,54.3,50.2,30.01,SW,232,1.0,6.0,86,0.00,,,0.00,0.0,meteohub,2013-10-04 06:22:00,
2013-10-04 02:27:00,54.5,50.0,30.01,SW,232,0.0,6.0,85,0.00,,,0.00,0.0,meteohub,2013-10-04 06:27:00,
2013-10-04 02:33:00,54.5,50.4,30.01,SW,232,0.0,5.0,86,0.00,,,0.00,0.0,meteohub,2013-10-04 06:33:00,
2013-10-04 02:38:00,54.5,50.4,30.01,SW,232,0.0,5.0,86,0.00,,,0.00,0.0,meteohub,2013-10-04 06:38:00,
2013-10-04 02:43:00,54.3,50.2,30.01,SW,232,0.0,1.0,86,0.00,,,0.00,0.0,meteohub,2013-10-04 06:43:00,
2013-10-04 02:48:00,54.3,50.5,30.01,SW,232,0.0,0.0,87,0.00,,,0.00,0.0,meteohub,2013-10-04 06:48:00,
2013-10-04 02:53:00,54.1,50.4,30.01,SW,232,0.0,2.0,87,0.00,,,0.00,0.0,meteohub,2013-10-04 06:53:00,
2013-10-04 02:58:00,54.1,50.4,30.00,SW,232,0.0,2.0,87,0.00,,,0.00,0.0,meteohub,2013-10-04 06:58:00,
2013-10-04 03:03:00,54.0,50.2,30.00,SW,232,0.0,2.0,87,0.00,,,0.00,0.0,meteohub,2013-10-04 07:03:00,
2013-10-04 03:08:00,54.0,50.2,29.99,SW,232,0.0,2.0,87,0.00,,,0.00,0.0,meteohub,2013-10-04 07:08:00,
2013-10-04 03:13:00,53.8,50.4,30.00,SW,232,0.0,2.0,88,0.00,,,0.00,0.0,meteohub,2013-10-04 07:13:00,
2013-10-04 03:18:00,53.6,50.2,30.00,SW,232,0.0,2.0,88,0.00,,,0.00,0.0,meteohub,2013-10-04 07:18:00,
2013-10-04 03:23:00,53.4,50.0,30.00,SW,232,0.0,0.0,88,0.00,,,0.00,0.0,meteohub,2013-10-04 07:23:00,
2013-10-04 03:28:00,53.2,49.8,30.00,SW,232,0.0,0.0,88,0.00,,,0.00,0.0,meteohub,2013-10-04 07:28:00,
2013-10-04 03:33:00,53.1,49.6,30.00,SW,232,0.0,0.0,88,0.00,,,0.00,0.0,meteohub,2013-10-04 07:33:00,
2013-10-04 03:38:00,52.9,49.6,30.00,SW,232,0.0,0.0,89,0.00,,,0.00,0.0,meteohub,2013-10-04 07:38:00,
2013-10-04 03:43:00,52.5,49.5,30.00,SW,232,0.0,1.0,89,0.00,,,0.00,0.0,meteohub,2013-10-04 07:43:00,
2013-10-04 03:48:00,52.7,49.5,30.01,SW,232,0.0,1.0,89,0.00,,,0.00,0.0,meteohub,2013-10-04 07:48:00,
2013-10-04 03:53:00,52.7,49.5,30.01,SW,232,0.0,1.0,89,0.00,,,0.00,0.0,meteohub,2013-10-04 07:53:00,
2013-10-04 03:58:00,52.7,49.8,30.01,SW,232,0.0,1.0,90,0.00,,,0.00,0.0,meteohub,2013-10-04 07:58:00,
2013-10-04 04:03:00,52.7,49.8,30.01,SW,232,0.0,1.0,90,0.00,,,0.00,0.0,meteohub,2013-10-04 08:03:00,
2013-10-04 04:08:00,52.9,50.0,30.01,WSW,240,0.0,2.0,90,0.00,,,0.00,0.0,meteohub,2013-10-04 08:08:00,
2013-10-04 04:13:00,52.9,50.0,30.01,WSW,240,0.0,3.0,90,0.00,,,0.00,0.0,meteohub,2013-10-04 08:13:00,
2013-10-04 04:18:00,53.1,50.5,30.01,WNW,296,0.0,3.0,91,0.00,,,0.00,0.0,meteohub,2013-10-04 08:18:00,
2013-10-04 04:23:00,53.1,50.2,30.01,WNW,296,0.0,4.0,90,0.00,,,0.00,0.0,meteohub,2013-10-04 08:23:00,
2013-10-04 04:28:00,53.1,50.2,30.01,WNW,296,0.0,4.0,90,0.00,,,0.00,0.0,meteohub,2013-10-04 08:28:00,
2013-10-04 04:33:00,53.1,50.2,30.01,WNW,296,0.0,4.0,90,0.00,,,0.00,0.0,meteohub,2013-10-04 08:33:00,
2013-10-04 04:38:00,52.9,50.0,30.01,WNW,296,0.0,1.0,90,0.00,,,0.00,0.0,meteohub,2013-10-04 08:38:00,
2013-10-04 04:43:00,52.7,49.8,30.01,WNW,296,0.0,1.0,90,0.00,,,0.00,0.0,meteohub,2013-10-04 08:43:00,
2013-10-04 04:48:00,52.5,49.5,30.01,WNW,296,0.0,0.0,89,0.00,,,0.00,0.0,meteohub,2013-10-04 08:48:00,
2013-10-04 04:53:00,52.5,49.6,30.02,WNW,296,0.0,0.0,90,0.00,,,0.00,0.0,meteohub,2013-10-04 08:53:00,
2013-10-04 04:58:00,52.3,49.3,30.01,WNW,296,0.0,0.0,89,0.00,,,0.00,0.0,meteohub,2013-10-04 08:58:00,
2013-10-04 05:03:00,52.3,49.3,30.01,WNW,296,0.0,1.0,89,0.00,,,0.00,0.0,meteohub,2013-10-04 09:03:00,
2013-10-04 05:08:00,52.2,49.1,30.01,WNW,296,0.0,1.0,89,0.00,,,0.00,0.0,meteohub,2013-10-04 09:08:00,
2013-10-04 05:13:00,52.2,49.1,30.01,WNW,296,0.0,0.0,89,0.00,,,0.00,0.0,meteohub,2013-10-04 09:13:00,
2013-10-04 05:18:00,52.2,49.1,30.01,WNW,296,0.0,0.0,89,0.00,,,0.00,0.0,meteohub,2013-10-04 09:18:00,
2013-10-04 05:23:00,52.0,48.9,30.01,WNW,296,0.0,0.0,89,0.00,,,0.00,0.0,meteohub,2013-10-04 09:23:00,
2013-10-04 05:29:00,52.0,48.9,30.02,WNW,296,0.0,0.0,89,0.00,,,0.00,0.0,meteohub,2013-10-04 09:29:00,
2013-10-04 05:34:00,52.0,49.1,30.02,WNW,296,0.0,0.0,90,0.00,,,0.00,0.0,meteohub,2013-10-04 09:34:00,
2013-10-04 05:39:00,51.8,48.9,30.02,WNW,296,0.0,0.0,90,0.00,,,0.00,0.0,meteohub,2013-10-04 09:39:00,
2013-10-04 05:44:00,52.0,49.1,30.02,WNW,296,0.0,0.0,90,0.00,,,0.00,0.0,meteohub,2013-10-04 09:44:00,
2013-10-04 05:49:00,51.8,48.9,30.02,WNW,296,0.0,0.0,90,0.00,,,0.00,0.0,meteohub,2013-10-04 09:49:00,
2013-10-04 05:54:00,51.6,48.7,30.02,WNW,296,0.0,0.0,90,0.00,,,0.00,0.0,meteohub,2013-10-04 09:54:00,
2013-10-04 05:59:00,51.6,48.7,30.02,WNW,296,0.0,0.0,90,0.00,,,0.00,0.0,meteohub,2013-10-04 09:59:00,
2013-10-04 06:04:00,51.6,48.7,30.02,WNW,296,0.0,0.0,90,0.00,,,0.00,0.0,meteohub,2013-10-04 10:04:00,
2013-10-04 06:09:00,51.6,49.1,30.02,WNW,296,0.0,0.0,91,0.00,,,0.00,0.0,meteohub,2013-10-04 10:09:00,
2013-10-04 06:14:00,51.6,49.1,30.02,WNW,296,0.0,0.0,91,0.00,,,0.00,0.0,meteohub,2013-10-04 10:14:00,
2013-10-04 06:19:00,51.8,49.3,30.02,North,-999,-999.0,0.0,91,0.00,,,0.00,0.0,meteohub,2013-10-04 10:19:00,
2013-10-04 06:24:00,52.0,49.5,30.03,WNW,296,1.0,0.0,91,0.00,,,0.00,0.0,meteohub,2013-10-04 10:24:00,
2013-10-04 06:29:00,51.8,49.3,30.03,WNW,296,0.0,2.0,91,0.00,,,0.00,0.0,meteohub,2013-10-04 10:29:00,
2013-10-04 06:34:00,51.8,49.3,30.03,WNW,296,0.0,2.0,91,0.00,,,0.00,0.0,meteohub,2013-10-04 10:34:00,
2013-10-04 06:39:00,51.8,49.3,30.03,WNW,296,0.0,2.0,91,0.00,,,0.00,5.0,meteohub,2013-10-04 10:39:00,
2013-10-04 06:44:00,51.6,49.1,30.03,WNW,296,0.0,1.0,91,0.00,,,0.00,11.0,meteohub,2013-10-04 10:44:00,
2013-10-04 06:49:00,51.4,48.9,30.04,NE,49,0.0,1.0,91,0.00,,,0.00,12.0,meteohub,2013-10-04 10:49:00,
2013-10-04 06:54:00,51.4,48.9,30.04,NE,49,0.0,4.0,91,0.00,,,0.00,16.0,meteohub,2013-10-04 10:54:00,
2013-10-04 06:59:00,51.6,49.5,30.04,NE,49,2.0,4.0,92,0.00,,,0.00,23.0,meteohub,2013-10-04 10:59:00,
2013-10-04 07:05:00,51.6,49.5,30.04,NE,49,3.0,3.0,92,0.00,,,0.00,26.0,meteohub,2013-10-04 11:05:00,
2013-10-04 07:10:00,51.8,49.6,30.04,NE,49,1.0,3.0,92,0.00,,,0.00,33.0,meteohub,2013-10-04 11:10:00,
2013-10-04 07:15:00,52.0,49.6,30.04,NE,49,3.0,3.0,92,0.00,,,0.00,44.0,meteohub,2013-10-04 11:15:00,
2013-10-04 07:20:00,52.0,50.0,30.04,NE,49,1.0,3.0,93,0.00,,,0.00,56.0,meteohub,2013-10-04 11:20:00,
2013-10-04 07:25:00,52.2,50.2,30.05,NE,49,0.0,3.0,93,0.00,,,0.00,42.0,meteohub,2013-10-04 11:25:00,
2013-10-04 07:30:00,52.2,50.2,30.04,NE,49,0.0,3.0,93,0.00,,,0.00,53.0,meteohub,2013-10-04 11:30:00,
2013-10-04 07:35:00,52.3,50.4,30.05,NE,49,0.0,2.0,93,0.00,,,0.00,46.0,meteohub,2013-10-04 11:35:00,
2013-10-04 07:40:00,52.5,50.5,30.05,NE,49,2.0,2.0,93,0.00,,,0.00,137.0,meteohub,2013-10-04 11:40:00,
2013-10-04 07:45:00,52.9,50.9,30.05,NE,49,2.0,3.0,93,0.00,,,0.00,98.0,meteohub,2013-10-04 11:45:00,
2013-10-04 07:50:00,53.1,50.7,30.05,NE,49,2.0,3.0,92,0.00,,,0.00,174.0,meteohub,2013-10-04 11:50:00,
2013-10-04 07:55:00,53.2,50.9,30.05,NE,49,0.0,3.0,92,0.00,,,0.00,200.0,meteohub,2013-10-04 11:55:00,
2013-10-04 08:00:00,53.4,51.1,30.05,NE,49,2.0,3.0,92,0.00,,,0.00,199.0,meteohub,2013-10-04 12:00:00,
2013-10-04 08:05:00,53.8,51.3,30.06,NE,49,3.0,3.0,91,0.00,,,0.00,236.0,meteohub,2013-10-04 12:05:00,
2013-10-04 08:10:00,54.0,51.1,30.06,NE,49,2.0,3.0,90,0.00,,,0.00,290.0,meteohub,2013-10-04 12:10:00,
2013-10-04 08:15:00,54.3,51.1,30.06,NE,49,0.0,3.0,89,0.00,,,0.00,353.0,meteohub,2013-10-04 12:15:00,
2013-10-04 08:20:00,54.9,51.1,30.06,NE,49,2.0,3.0,87,0.00,,,0.00,260.0,meteohub,2013-10-04 12:20:00,
2013-10-04 08:25:00,54.9,50.7,30.06,NE,49,2.0,3.0,86,0.00,,,0.00,127.0,meteohub,2013-10-04 12:25:00,
2013-10-04 08:30:00,55.0,50.9,30.06,NE,49,3.0,4.0,86,0.00,,,0.00,120.0,meteohub,2013-10-04 12:30:00,
2013-10-04 08:35:00,55.0,50.9,30.06,NE,49,3.0,4.0,86,0.00,,,0.00,141.0,meteohub,2013-10-04 12:35:00,
2013-10-04 08:40:00,55.2,50.7,30.06,NE,49,3.0,4.0,85,0.00,,,0.00,125.0,meteohub,2013-10-04 12:40:00,
2013-10-04 08:45:00,55.4,50.0,30.06,NE,49,3.0,3.0,82,0.00,,,0.00,104.0,meteohub,2013-10-04 12:45:00,
2013-10-04 08:51:00,55.8,50.4,30.06,NE,49,2.0,4.0,82,0.00,,,0.00,123.0,meteohub,2013-10-04 12:51:00,
2013-10-04 08:56:00,55.9,50.2,30.06,NE,49,3.0,4.0,81,0.00,,,0.00,301.0,meteohub,2013-10-04 12:56:00,
2013-10-04 09:01:00,56.1,50.0,30.06,NE,49,0.0,4.0,80,0.00,,,0.00,139.0,meteohub,2013-10-04 13:01:00,
2013-10-04 09:06:00,56.3,49.8,30.06,NE,49,0.0,3.0,79,0.00,,,0.00,163.0,meteohub,2013-10-04 13:06:00,
2013-10-04 09:11:00,56.5,50.0,30.06,NE,49,0.0,3.0,79,0.00,,,0.00,123.0,meteohub,2013-10-04 13:11:00,
2013-10-04 09:16:00,56.5,50.0,30.06,NE,49,0.0,2.0,79,0.00,,,0.00,258.0,meteohub,2013-10-04 13:16:00,
2013-10-04 09:21:00,56.8,50.0,30.06,NE,49,0.0,1.0,78,0.00,,,0.00,299.0,meteohub,2013-10-04 13:21:00,
2013-10-04 09:26:00,56.8,49.3,30.05,NE,49,0.0,0.0,76,0.00,,,0.00,346.0,meteohub,2013-10-04 13:26:00,
2013-10-04 09:31:00,57.4,49.5,30.06,NE,49,0.0,0.0,75,0.00,,,0.00,396.0,meteohub,2013-10-04 13:31:00,
2013-10-04 09:36:00,57.7,50.2,30.06,NE,49,0.0,0.0,76,0.00,,,0.00,392.0,meteohub,2013-10-04 13:36:00,
2013-10-04 09:41:00,58.3,50.4,30.06,NE,49,0.0,0.0,75,0.00,,,0.00,482.0,meteohub,2013-10-04 13:41:00,
2013-10-04 09:46:00,58.6,50.0,30.06,NE,49,0.0,0.0,73,0.00,,,0.00,392.0,meteohub,2013-10-04 13:46:00,
2013-10-04 09:51:00,59.2,50.5,30.06,NE,49,0.0,0.0,73,0.00,,,0.00,487.0,meteohub,2013-10-04 13:51:00,
2013-10-04 09:56:00,59.5,49.8,30.06,NE,49,0.0,0.0,70,0.00,,,0.00,513.0,meteohub,2013-10-04 13:56:00,
2013-10-04 10:01:00,60.1,49.8,30.06,NE,49,0.0,0.0,69,0.00,,,0.00,475.0,meteohub,2013-10-04 14:01:00,
2013-10-04 10:06:00,60.1,49.8,30.06,NE,49,0.0,1.0,69,0.00,,,0.00,533.0,meteohub,2013-10-04 14:06:00,
2013-10-04 10:11:00,60.3,50.0,30.06,NE,49,0.0,2.0,69,0.00,,,0.00,506.0,meteohub,2013-10-04 14:11:00,
2013-10-04 10:16:00,60.4,50.5,30.06,NE,49,0.0,2.0,70,0.00,,,0.00,536.0,meteohub,2013-10-04 14:16:00,
2013-10-04 10:21:00,61.0,50.7,30.06,NE,49,0.0,2.0,69,0.00,,,0.00,606.0,meteohub,2013-10-04 14:21:00,
2013-10-04 10:26:00,61.5,50.9,30.06,NE,49,0.0,0.0,68,0.00,,,0.00,666.0,meteohub,2013-10-04 14:26:00,
2013-10-04 10:31:00,62.1,51.4,30.06,NE,49,0.0,1.0,68,0.00,,,0.00,478.0,meteohub,2013-10-04 14:31:00,
2013-10-04 10:36:00,62.2,51.6,30.06,NE,49,0.0,1.0,68,0.00,,,0.00,357.0,meteohub,2013-10-04 14:36:00,
2013-10-04 10:41:00,62.4,51.3,30.06,NE,49,0.0,1.0,67,0.00,,,0.00,366.0,meteohub,2013-10-04 14:41:00,
2013-10-04 10:46:00,62.6,51.4,30.06,NE,49,2.0,2.0,67,0.00,,,0.00,357.0,meteohub,2013-10-04 14:46:00,
2013-10-04 10:51:00,62.6,51.1,30.05,North,355,4.0,4.0,66,0.00,,,0.00,383.0,meteohub,2013-10-04 14:51:00,
2013-10-04 10:56:00,62.1,51.4,30.05,North,355,3.0,4.0,68,0.00,,,0.00,343.0,meteohub,2013-10-04 14:56:00,
2013-10-04 11:01:00,61.5,51.6,30.04,NNW,333,2.0,4.0,70,0.00,,,0.00,601.0,meteohub,2013-10-04 15:01:00,
2013-10-04 11:06:00,61.3,51.4,30.04,NNW,346,5.0,5.0,70,0.00,,,0.00,608.0,meteohub,2013-10-04 15:06:00,
2013-10-04 11:12:00,61.3,51.1,30.04,NNW,346,5.0,6.0,69,0.00,,,0.00,617.0,meteohub,2013-10-04 15:12:00,
2013-10-04 11:17:00,61.3,52.2,30.04,NNW,346,4.0,6.0,72,0.00,,,0.00,622.0,meteohub,2013-10-04 15:17:00,
2013-10-04 11:22:00,61.5,52.0,30.04,NNW,346,4.0,6.0,71,0.00,,,0.00,631.0,meteohub,2013-10-04 15:22:00,
2013-10-04 11:27:00,61.5,52.3,30.04,NNW,346,4.0,5.0,72,0.00,,,0.00,628.0,meteohub,2013-10-04 15:27:00,
2013-10-04 11:32:00,61.5,52.3,30.04,NNW,346,3.0,5.0,72,0.00,,,0.00,629.0,meteohub,2013-10-04 15:32:00,
2013-10-04 11:37:00,61.9,52.7,30.04,NNW,346,3.0,5.0,72,0.00,,,0.00,633.0,meteohub,2013-10-04 15:37:00,
2013-10-04 11:42:00,61.9,53.4,30.04,NNW,346,2.0,5.0,74,0.00,,,0.00,636.0,meteohub,2013-10-04 15:42:00,
2013-10-04 11:47:00,61.9,53.4,30.04,NNW,346,3.0,4.0,74,0.00,,,0.00,636.0,meteohub,2013-10-04 15:47:00,
2013-10-04 11:52:00,62.1,53.2,30.03,NNW,346,0.0,4.0,73,0.00,,,0.00,640.0,meteohub,2013-10-04 15:52:00,
2013-10-04 11:57:00,62.2,53.8,30.03,NNW,346,0.0,3.0,74,0.00,,,0.00,638.0,meteohub,2013-10-04 15:57:00,
2013-10-04 12:02:00,62.6,53.8,30.03,NNW,346,0.0,3.0,73,0.00,,,0.00,638.0,meteohub,2013-10-04 16:02:00,
2013-10-04 12:07:00,62.8,54.0,30.03,NNW,346,0.0,0.0,73,0.00,,,0.00,642.0,meteohub,2013-10-04 16:07:00,
2013-10-04 12:12:00,62.8,52.9,30.03,NNW,346,0.0,0.0,70,0.00,,,0.00,673.0,meteohub,2013-10-04 16:12:00,
2013-10-04 12:17:00,63.0,51.8,30.03,NNW,346,0.0,0.0,67,0.00,,,0.00,707.0,meteohub,2013-10-04 16:17:00,
2013-10-04 12:22:00,63.1,49.8,30.02,NNW,346,0.0,0.0,62,0.00,,,0.00,446.0,meteohub,2013-10-04 16:22:00,
2013-10-04 12:27:00,63.3,49.6,30.02,NNW,346,0.0,0.0,61,0.00,,,0.00,267.0,meteohub,2013-10-04 16:27:00,
2013-10-04 12:32:00,63.7,50.4,30.01,NNW,346,0.0,0.0,62,0.00,,,0.00,262.0,meteohub,2013-10-04 16:32:00,
2013-10-04 12:37:00,64.0,49.8,30.01,NNW,346,0.0,0.0,60,0.00,,,0.00,703.0,meteohub,2013-10-04 16:37:00,
2013-10-04 12:42:00,64.2,49.6,30.01,NNW,346,0.0,0.0,59,0.00,,,0.00,749.0,meteohub,2013-10-04 16:42:00,
2013-10-04 12:47:00,64.0,50.4,30.01,NNW,346,0.0,1.0,61,0.00,,,0.00,708.0,meteohub,2013-10-04 16:47:00,
2013-10-04 12:52:00,64.0,50.4,30.01,NNW,346,0.0,2.0,61,0.00,,,0.00,858.0,meteohub,2013-10-04 16:52:00,
2013-10-04 12:57:00,64.2,50.5,30.01,NNW,346,0.0,2.0,61,0.00,,,0.00,548.0,meteohub,2013-10-04 16:57:00,
2013-10-04 13:02:00,64.6,50.0,30.01,NNW,346,0.0,1.0,59,0.00,,,0.00,733.0,meteohub,2013-10-04 17:02:00,
2013-10-04 13:07:00,64.9,50.2,30.01,NNW,346,0.0,0.0,59,0.00,,,0.00,638.0,meteohub,2013-10-04 17:07:00,
2013-10-04 13:12:00,65.3,50.2,30.01,NNW,346,0.0,0.0,58,0.00,,,0.00,628.0,meteohub,2013-10-04 17:12:00,
2013-10-04 13:17:00,65.7,50.0,30.00,NNW,346,0.0,0.0,57,0.00,,,0.00,638.0,meteohub,2013-10-04 17:17:00,
2013-10-04 13:22:00,65.7,50.5,30.01,NNW,346,0.0,1.0,58,0.00,,,0.00,360.0,meteohub,2013-10-04 17:22:00,
2013-10-04 13:27:00,65.5,50.7,30.00,NNW,346,0.0,1.0,59,0.00,,,0.00,705.0,meteohub,2013-10-04 17:27:00,
2013-10-04 13:32:00,65.5,50.7,30.00,NNW,346,0.0,1.0,59,0.00,,,0.00,687.0,meteohub,2013-10-04 17:32:00,
2013-10-04 13:37:00,65.5,51.3,30.00,NNW,346,0.0,1.0,60,0.00,,,0.00,559.0,meteohub,2013-10-04 17:37:00,
2013-10-04 14:02:00,66.4,51.1,30.00,NNW,346,0.0,0.0,58,0.00,,,0.00,538.0,meteohub,2013-10-04 18:02:00,
2013-10-04 14:07:00,66.6,50.9,30.00,NNW,346,1.0,0.0,57,0.00,,,0.00,482.0,meteohub,2013-10-04 18:07:00,
2013-10-04 14:12:00,65.8,52.0,30.00,NNW,346,0.0,0.0,61,0.00,,,0.00,404.0,meteohub,2013-10-04 18:12:00,
2013-10-04 14:17:00,65.1,51.8,30.00,NNW,346,0.0,3.0,62,0.00,,,0.00,311.0,meteohub,2013-10-04 18:17:00,
2013-10-04 14:22:00,64.9,53.2,29.99,NNW,336,4.0,4.0,66,0.00,,,0.00,308.0,meteohub,2013-10-04 18:22:00,
2013-10-04 14:27:00,64.8,53.1,29.99,NW,326,5.0,5.0,66,0.00,,,0.00,188.0,meteohub,2013-10-04 18:27:00,
2013-10-04 14:32:00,64.6,52.2,29.99,NNW,336,4.0,6.0,64,0.00,,,0.00,195.0,meteohub,2013-10-04 18:32:00,
2013-10-04 14:37:00,64.2,52.7,29.99,NW,321,3.0,8.0,66,0.00,,,0.00,250.0,meteohub,2013-10-04 18:37:00,
2013-10-04 14:43:00,64.0,52.5,29.99,NNW,333,1.0,8.0,66,0.00,,,0.00,237.0,meteohub,2013-10-04 18:43:00,
2013-10-04 14:48:00,64.0,51.6,29.99,NW,325,3.0,7.0,64,0.00,,,0.00,202.0,meteohub,2013-10-04 18:48:00,
2013-10-04 14:53:00,64.0,53.2,29.99,NW,325,2.0,6.0,68,0.00,,,0.00,178.0,meteohub,2013-10-04 18:53:00,
2013-10-04 14:58:00,64.0,53.2,29.99,NW,325,3.0,6.0,68,0.00,,,0.00,209.0,meteohub,2013-10-04 18:58:00,
2013-10-04 15:03:00,64.0,53.6,29.99,NW,319,4.0,6.0,69,0.00,,,0.00,199.0,meteohub,2013-10-04 19:03:00,
2013-10-04 15:08:00,63.9,53.1,29.99,NW,313,5.0,5.0,68,0.00,,,0.00,276.0,meteohub,2013-10-04 19:08:00,
2013-10-04 15:13:00,63.9,53.4,29.99,NW,313,3.0,6.0,69,0.00,,,0.00,279.0,meteohub,2013-10-04 19:13:00,
2013-10-04 15:18:00,63.9,54.3,29.99,NW,313,0.0,6.0,71,0.00,,,0.00,476.0,meteohub,2013-10-04 19:18:00,
2013-10-04 15:23:00,64.0,54.5,29.99,NW,313,0.0,6.0,71,0.00,,,0.00,174.0,meteohub,2013-10-04 19:23:00,
2013-10-04 15:28:00,64.0,54.9,29.99,NW,313,2.0,5.0,72,0.00,,,0.00,371.0,meteohub,2013-10-04 19:28:00,
2013-10-04 15:33:00,64.0,54.5,29.99,NW,313,2.0,3.0,71,0.00,,,0.00,415.0,meteohub,2013-10-04 19:33:00,
2013-10-04 15:38:00,64.0,54.1,29.99,NW,313,1.0,3.0,70,0.00,,,0.00,267.0,meteohub,2013-10-04 19:38:00,
2013-10-04 15:43:00,64.2,53.8,29.99,NW,313,1.0,3.0,69,0.00,,,0.00,343.0,meteohub,2013-10-04 19:43:00,
2013-10-04 15:48:00,64.4,54.3,29.99,NW,313,0.0,3.0,70,0.00,,,0.00,202.0,meteohub,2013-10-04 19:48:00,
2013-10-04 15:53:00,64.4,52.3,29.99,West,277,4.0,4.0,65,0.00,,,0.00,156.0,meteohub,2013-10-04 19:53:00,
2013-10-04 15:58:00,64.4,52.3,29.99,West,279,5.0,5.0,65,0.00,,,0.00,221.0,meteohub,2013-10-04 19:58:00,
2013-10-04 16:03:00,64.6,52.5,29.99,West,279,5.0,6.0,65,0.00,,,0.00,371.0,meteohub,2013-10-04 20:03:00,
2013-10-04 16:08:00,64.6,52.5,29.99,West,274,4.0,6.0,65,0.00,,,0.00,192.0,meteohub,2013-10-04 20:08:00,
2013-10-04 16:13:00,64.6,52.5,29.99,West,272,4.0,7.0,65,0.00,,,0.00,179.0,meteohub,2013-10-04 20:13:00,
2013-10-04 16:18:00,64.2,52.2,29.99,West,269,8.0,8.0,65,0.00,,,0.00,91.0,meteohub,2013-10-04 20:18:00,
2013-10-04 16:23:00,64.2,52.2,29.99,West,269,5.0,8.0,65,0.00,,,0.00,95.0,meteohub,2013-10-04 20:23:00,
2013-10-04 16:28:00,64.0,51.6,29.99,West,260,6.0,8.0,64,0.00,,,0.00,107.0,meteohub,2013-10-04 20:28:00,
2013-10-04 16:33:00,64.0,51.6,29.99,West,263,6.0,9.0,64,0.00,,,0.00,104.0,meteohub,2013-10-04 20:33:00,
2013-10-04 16:38:00,64.2,51.8,29.99,West,265,5.0,9.0,64,0.00,,,0.00,93.0,meteohub,2013-10-04 20:38:00,
2013-10-04 16:43:00,64.2,52.2,29.99,West,265,3.0,9.0,65,0.00,,,0.00,90.0,meteohub,2013-10-04 20:43:00,
2013-10-04 16:48:00,64.0,51.3,29.99,WSW,257,5.0,8.0,63,0.00,,,0.00,74.0,meteohub,2013-10-04 20:48:00,
2013-10-04 16:53:00,64.2,51.8,29.99,WSW,252,5.0,7.0,64,0.00,,,0.00,67.0,meteohub,2013-10-04 20:53:00,
2013-10-04 16:58:00,64.0,49.8,29.99,WSW,250,5.0,7.0,60,0.00,,,0.00,83.0,meteohub,2013-10-04 20:58:00,
2013-10-04 17:03:00,64.4,49.8,29.98,SW,225,3.0,7.0,59,0.00,,,0.00,149.0,meteohub,2013-10-04 21:03:00,
2013-10-04 17:08:00,64.8,53.1,29.98,SW,225,0.0,6.0,66,0.00,,,0.00,130.0,meteohub,2013-10-04 21:08:00,
2013-10-04 17:13:00,64.9,53.2,29.99,SW,219,0.0,6.0,66,0.00,,,0.00,134.0,meteohub,2013-10-04 21:13:00,
2013-10-04 17:18:00,65.1,53.1,29.99,SW,219,1.0,6.0,65,0.00,,,0.00,56.0,meteohub,2013-10-04 21:18:00,
2013-10-04 17:23:00,65.3,52.3,29.98,SW,219,0.0,4.0,63,0.00,,,0.00,39.0,meteohub,2013-10-04 21:23:00,
2013-10-04 17:28:00,64.9,52.5,29.99,SSW,196,4.0,4.0,64,0.00,,,0.00,40.0,meteohub,2013-10-04 21:28:00,
2013-10-04 17:33:00,64.4,52.9,29.99,SSW,196,0.0,7.0,66,0.00,,,0.00,30.0,meteohub,2013-10-04 21:33:00,
2013-10-04 17:38:00,63.9,52.7,29.99,SSE,161,1.0,7.0,67,0.00,,,0.00,21.0,meteohub,2013-10-04 21:38:00,
2013-10-04 17:43:00,63.7,52.5,29.99,SSE,161,0.0,7.0,67,0.00,,,0.00,16.0,meteohub,2013-10-04 21:43:00,
2013-10-04 17:48:00,63.3,52.5,29.99,SSW,213,0.0,6.0,68,0.00,,,0.00,12.0,meteohub,2013-10-04 21:48:00,
2013-10-04 17:53:00,63.0,52.7,29.99,SSW,213,0.0,7.0,69,0.00,,,0.00,9.0,meteohub,2013-10-04 21:53:00,
2013-10-04 17:58:00,62.4,52.5,29.99,SSW,213,0.0,7.0,70,0.00,,,0.00,7.0,meteohub,2013-10-04 21:58:00,
2013-10-04 18:03:00,62.1,52.5,29.99,SSW,201,0.0,7.0,71,0.00,,,0.00,5.0,meteohub,2013-10-04 22:03:00,
2013-10-04 18:08:00,61.5,52.3,29.99,SSW,195,0.0,7.0,72,0.00,,,0.00,0.0,meteohub,2013-10-04 22:08:00,
2013-10-04 18:13:00,61.3,52.7,29.99,SSW,201,0.0,7.0,73,0.00,,,0.00,0.0,meteohub,2013-10-04 22:13:00,
2013-10-04 18:18:00,61.0,52.7,29.99,SSW,211,0.0,7.0,74,0.00,,,0.00,0.0,meteohub,2013-10-04 22:18:00,
2013-10-04 18:23:00,60.6,52.7,30.00,South,184,0.0,6.0,75,0.00,,,0.00,0.0,meteohub,2013-10-04 22:23:00,
2013-10-04 18:28:00,60.4,52.5,30.00,South,184,0.0,6.0,75,0.00,,,0.00,0.0,meteohub,2013-10-04 22:28:00,
2013-10-04 18:33:00,60.3,52.7,30.00,South,184,0.0,4.0,76,0.00,,,0.00,0.0,meteohub,2013-10-04 22:33:00,
2013-10-04 18:38:00,60.1,52.5,30.00,South,184,0.0,3.0,76,0.00,,,0.00,0.0,meteohub,2013-10-04 22:38:00,
2013-10-04 18:43:00,60.1,52.5,30.00,South,184,0.0,3.0,76,0.00,,,0.00,0.0,meteohub,2013-10-04 22:43:00,
2013-10-04 18:48:00,59.7,52.5,30.01,South,184,0.0,0.0,77,0.00,,,0.00,0.0,meteohub,2013-10-04 22:48:00,
2013-10-04 18:53:00,59.4,52.9,30.01,South,184,1.0,2.0,79,0.00,,,0.00,0.0,meteohub,2013-10-04 22:53:00,
2013-10-04 18:58:00,59.0,52.9,30.01,South,184,0.0,5.0,80,0.00,,,0.00,0.0,meteohub,2013-10-04 22:58:00,
2013-10-04 19:03:00,58.8,52.7,30.01,South,184,0.0,5.0,80,0.00,,,0.00,0.0,meteohub,2013-10-04 23:03:00,
2013-10-04 19:08:00,58.6,52.9,30.01,South,184,0.0,5.0,81,0.00,,,0.00,0.0,meteohub,2013-10-04 23:08:00,
2013-10-04 19:13:00,58.6,52.9,30.01,South,184,0.0,3.0,81,0.00,,,0.00,0.0,meteohub,2013-10-04 23:13:00,
2013-10-04 19:18:00,58.5,52.7,30.01,South,184,0.0,0.0,81,0.00,,,0.00,0.0,meteohub,2013-10-04 23:18:00,
2013-10-04 19:23:00,58.3,52.5,30.01,South,184,0.0,0.0,81,0.00,,,0.00,0.0,meteohub,2013-10-04 23:23:00,
2013-10-04 19:28:00,58.3,52.5,30.01,South,184,0.0,2.0,81,0.00,,,0.00,0.0,meteohub,2013-10-04 23:28:00,
2013-10-04 19:33:00,58.3,52.5,30.02,South,184,0.0,2.0,81,0.00,,,0.00,0.0,meteohub,2013-10-04 23:33:00,
2013-10-04 19:38:00,58.3,52.5,30.01,South,184,0.0,0.0,81,0.00,,,0.00,0.0,meteohub,2013-10-04 23:38:00,
2013-10-04 19:44:00,58.3,52.5,30.01,South,184,0.0,0.0,81,0.00,,,0.00,0.0,meteohub,2013-10-04 23:44:00,
2013-10-04 19:49:00,58.3,52.9,30.02,South,184,0.0,0.0,82,0.00,,,0.00,0.0,meteohub,2013-10-04 23:49:00,
2013-10-04 19:54:00,58.3,52.5,30.02,South,184,0.0,0.0,81,0.00,,,0.00,0.0,meteohub,2013-10-04 23:54:00,
2013-10-04 19:59:00,58.3,52.5,30.02,South,184,0.0,0.0,81,0.00,,,0.00,0.0,meteohub,2013-10-04 23:59:00,
2013-10-04 20:04:00,58.1,52.3,30.01,South,184,0.0,0.0,81,0.00,,,0.00,0.0,meteohub,2013-10-05 00:04:00,
2013-10-04 20:09:00,58.1,52.3,30.02,South,184,0.0,0.0,81,0.00,,,0.00,0.0,meteohub,2013-10-05 00:09:00,
2013-10-04 20:14:00,57.9,52.2,30.02,South,184,0.0,0.0,81,0.00,,,0.00,0.0,meteohub,2013-10-05 00:14:00,
2013-10-04 20:19:00,57.9,52.2,30.02,South,184,0.0,0.0,81,0.00,,,0.00,0.0,meteohub,2013-10-05 00:19:00,
2013-10-04 20:24:00,57.9,52.2,30.02,South,184,0.0,0.0,81,0.00,,,0.00,0.0,meteohub,2013-10-05 00:24:00,
2013-10-04 20:29:00,57.9,51.8,30.02,South,184,0.0,0.0,80,0.00,,,0.00,0.0,meteohub,2013-10-05 00:29:00,
2013-10-04 20:34:00,57.9,51.8,30.02,South,184,0.0,0.0,80,0.00,,,0.00,0.0,meteohub,2013-10-05 00:34:00,
2013-10-04 20:39:00,57.9,51.4,30.02,South,184,3.0,0.0,79,0.00,,,0.00,0.0,meteohub,2013-10-05 00:39:00,
2013-10-04 20:44:00,57.7,52.3,30.03,South,182,0.0,0.0,82,0.00,,,0.00,0.0,meteohub,2013-10-05 00:44:00,
2013-10-04 20:49:00,57.7,52.0,30.03,South,182,0.0,4.0,81,0.00,,,0.00,0.0,meteohub,2013-10-05 00:49:00,
2013-10-04 20:54:00,57.9,51.8,30.03,South,182,2.0,4.0,80,0.00,,,0.00,0.0,meteohub,2013-10-05 00:54:00,
2013-10-04 20:59:00,58.1,52.0,30.03,South,182,0.0,3.0,80,0.00,,,0.00,0.0,meteohub,2013-10-05 00:59:00,
2013-10-04 21:04:00,58.3,52.2,30.03,South,182,0.0,2.0,80,0.00,,,0.00,0.0,meteohub,2013-10-05 01:04:00,
2013-10-04 21:09:00,58.3,51.8,30.04,South,182,0.0,2.0,79,0.00,,,0.00,0.0,meteohub,2013-10-05 01:09:00,
2013-10-04 21:14:00,58.3,51.4,30.04,South,182,0.0,2.0,78,0.00,,,0.00,0.0,meteohub,2013-10-05 01:14:00,
2013-10-04 21:19:00,58.5,52.0,30.04,South,182,0.0,1.0,79,0.00,,,0.00,0.0,meteohub,2013-10-05 01:19:00,
2013-10-04 21:24:00,58.6,52.5,30.04,South,182,0.0,1.0,80,0.00,,,0.00,0.0,meteohub,2013-10-05 01:24:00,
2013-10-04 21:29:00,58.6,52.9,30.04,South,182,0.0,1.0,81,0.00,,,0.00,0.0,meteohub,2013-10-05 01:29:00,
2013-10-04 21:34:00,58.6,53.2,30.04,South,182,0.0,1.0,82,0.00,,,0.00,0.0,meteohub,2013-10-05 01:34:00,
2013-10-04 21:39:00,58.5,53.1,30.04,South,182,1.0,1.0,82,0.00,,,0.00,0.0,meteohub,2013-10-05 01:39:00,
2013-10-04 21:44:00,58.5,53.1,30.04,South,178,4.0,4.0,82,0.00,,,0.00,0.0,meteohub,2013-10-05 01:44:00,
2013-10-04 21:49:00,58.5,53.2,30.04,NE,36,4.0,4.0,83,0.00,,,0.00,0.0,meteohub,2013-10-05 01:49:00,
2013-10-04 21:54:00,58.6,53.2,30.04,NE,34,4.0,5.0,82,0.00,,,0.00,0.0,meteohub,2013-10-05 01:54:00,
2013-10-04 21:59:00,58.6,53.4,30.04,NE,50,3.0,5.0,83,0.00,,,0.00,0.0,meteohub,2013-10-05 01:59:00,
2013-10-04 22:04:00,58.5,54.0,30.05,NE,50,2.0,5.0,85,0.00,,,0.00,0.0,meteohub,2013-10-05 02:04:00,
2013-10-04 22:09:00,58.3,54.1,30.05,NE,50,0.0,5.0,86,0.00,,,0.00,0.0,meteohub,2013-10-05 02:09:00,
2013-10-04 22:14:00,57.9,53.8,30.05,NE,50,2.0,5.0,86,0.00,,,0.00,0.0,meteohub,2013-10-05 02:14:00,
2013-10-04 22:19:00,57.7,53.2,30.05,NE,50,2.0,4.0,85,0.00,,,0.00,0.0,meteohub,2013-10-05 02:19:00,
2013-10-04 22:24:00,57.6,53.1,30.05,NE,50,3.0,3.0,85,0.00,,,0.00,0.0,meteohub,2013-10-05 02:24:00,
2013-10-04 22:29:00,57.6,53.1,30.05,NE,50,0.0,3.0,85,0.00,,,0.00,0.0,meteohub,2013-10-05 02:29:00,
2013-10-04 22:34:00,57.6,52.5,30.05,NE,50,0.0,3.0,83,0.00,,,0.00,0.0,meteohub,2013-10-05 02:34:00,
2013-10-04 22:39:00,57.6,51.4,30.05,NE,50,1.0,3.0,80,0.00,,,0.00,0.0,meteohub,2013-10-05 02:39:00,
2013-10-04 22:44:00,57.6,51.4,30.06,NE,50,0.0,2.0,80,0.00,,,0.00,0.0,meteohub,2013-10-05 02:44:00,
2013-10-04 22:49:00,57.6,50.7,30.05,NE,50,2.0,3.0,78,0.00,,,0.00,0.0,meteohub,2013-10-05 02:49:00,
2013-10-04 22:54:00,57.7,50.2,30.05,NE,50,1.0,3.0,76,0.00,,,0.00,0.0,meteohub,2013-10-05 02:54:00,
2013-10-04 22:59:00,57.7,49.8,30.05,NE,50,2.0,4.0,75,0.00,,,0.00,0.0,meteohub,2013-10-05 02:59:00,
2013-10-04 23:04:00,57.9,49.3,30.05,NE,50,4.0,4.0,73,0.00,,,0.00,0.0,meteohub,2013-10-05 03:04:00,
2013-10-04 23:09:00,58.1,48.4,30.05,NNE,26,5.0,5.0,70,0.00,,,0.00,0.0,meteohub,2013-10-05 03:09:00,
2013-10-04 23:14:00,58.1,48.7,30.05,NNE,26,4.0,6.0,71,0.00,,,0.00,0.0,meteohub,2013-10-05 03:14:00,
2013-10-04 23:19:00,57.9,48.6,30.05,NNE,29,5.0,6.0,71,0.00,,,0.00,0.0,meteohub,2013-10-05 03:19:00,
2013-10-04 23:24:00,57.9,48.6,30.05,NNE,30,4.0,6.0,71,0.00,,,0.00,0.0,meteohub,2013-10-05 03:24:00,
2013-10-04 23:29:00,57.7,48.0,30.05,NNE,30,3.0,6.0,70,0.00,,,0.00,0.0,meteohub,2013-10-05 03:29:00,
2013-10-04 23:34:00,57.7,48.7,30.05,NNE,30,2.0,6.0,72,0.00,,,0.00,0.0,meteohub,2013-10-05 03:34:00,
2013-10-04 23:39:00,57.6,48.9,30.05,NNE,30,1.0,6.0,73,0.00,,,0.00,0.0,meteohub,2013-10-05 03:39:00,
2013-10-04 23:44:00,57.6,49.6,30.05,NNE,30,0.0,6.0,75,0.00,,,0.00,0.0,meteohub,2013-10-05 03:44:00,
2013-10-04 23:49:00,57.4,49.8,30.05,NNE,30,1.0,4.0,76,0.00,,,0.00,0.0,meteohub,2013-10-05 03:49:00,
2013-10-04 23:55:00,57.2,49.3,30.06,NNE,30,0.0,3.0,75,0.00,,,0.00,0.0,meteohub,2013-10-05 03:55:00,